STARLINK-1184, 45098

Orbit data source: Space-Track

STARLINK-1184, 45098 is a payload satellite owned by SpaceX/Seattle (US) in LEO that was launched on Wed, 29 Jan 2020 UTC via an FALCON 9 launch vehicle from the Air Force Eastern Test Range (AFETR). Payload-class satellites include a variety of spacecraft equipped with specific instruments for various scientific and technological missions. These include communications satellites like Starlink; space stations such as the ISS; scientific satellites like the Hubble; Earth observation satellites from companies like Planet Labs, Umbra, and HawkEye 360; GPS; miniature CubeSats for education and research; and military/defense satellites.

Loading next visibility...
Identifier
45098, 2020-006BG
Orbit
LEO
Country
Flag of USUS
Related business
Manufacturer
SpaceX/Seattle
Mission
Operational Commercial Communications
Bus & Motor
STARLINK, Unknown motor
Mass
260 kg wet, ~248 kg dry
Launch date (UTC)
2020-01-29 (6 years ago)
Launch vehicle
FALCON 9
Launch site
Air Force Eastern Test Range (AFETR)
Object type
Payload
Rocket body
Debris
Shape & HBR
Box + 1 Pan, 10.1 m
Radar Cross Section
13.562 m², Large (>1 m²)

Expand to show TLE details & history
Last TLE update: 15 hours ago

TLE from 15 hours ago
0 STARLINK-1184
1 45098U 20006BG  25286.42402552  .00001159  00000-0  96681-4 0  9991
2 45098  53.0536 187.7196 0001356 105.3676 254.7463 15.06397048314824
Epoch: 2025-10-13T10:10Z
TLE epoch observation values (Epoch: 2025-10-13T10:10:35.804Z)
Latitude
-0.00003°
Longitude
12.84338°
Altitude
548.347 km
Speed
7.589 km/s
True Right ascension
12h 30m 52s
True Declination
0° 00' 00"
Sunlit
Object was in daylight at epoch
Visualization orbit readout
Latitude
Unknown
Longitude
Unknown
Altitude
Unknown
Speed
Unknown
Apparent Right ascension
Unknown
Apparent Declination
Unknown
Sunlit
N/A
Visualization observer readout
Local Sidereal Time
20:02:08
Azimuth
Unknown
Elevation
Unknown
Doppler factor
Unknown
Orbital elements
Apogee altitude
548.431 km
Perigee altitude
546.552 km
Semi-major axis
6,925.628 km
Eccentricity
0.00014
Inclination
53.0536°
RAAN
187.7196°
Arg. of periapsis
105.3676°
True anomaly
254.73131°
Mean anomaly
254.7463°
Eccentric anomaly
254.7388°
Mean motion
3.76578 °/min
Orbital period
95.6 mins
BSTAR
0.000096681
Loading maneuver chart data...
Computing Atmospheric mass density...
Loading historical data...
Loading historical data...
Loading historical data...
Loading historical data...
Loading historical data...
Loading historical data...
Loading historical data...

Documentation

Showing up to 5 results
|